Location: G�rce
(52.2400°N, 20.9047°E)
Time: 06:01:41
(UTC+00:00)

Daily predictions for brighter satellites

Satellite Brightness Start Highest point End
(mag) Time Altitude Azimuth Time Altitude Azimuth Time Altitude Azimuth
SJ-11-01 4.3 17:08:27 10° SSE 17:13:06 64° ENE 17:17:47 10° N
CZ-4 R/B 2.0 17:12:08 10° S 17:16:20 65° WSW 17:20:31 10° NNW
Cosmos 1437 2.5 17:14:01 10° NNW 17:17:02 89° E 17:20:01 10° SSE
Cosmos 1842 3.4 17:15:34 10° NNW 17:19:28 81° W 17:23:19 10° S
ISS -1.8 17:19:20 10° S 17:21:11 14° SE 17:23:02 10° ESE
NOSS 8 (F) 4.1 17:19:50 10° SW 17:22:57 68° SE 17:25:59 10° NE
CZ-2C R/B 3.7 17:18:39 10° NE 17:23:07 24° E 17:27:36 10° SE
ARGOS 3.2 17:18:03 10° SSE 17:23:18 60° ENE 17:28:36 10° N
Cosmos 990 Rocket 3.9 17:21:20 10° SSW 17:26:29 82° ESE 17:31:39 10° NNE
Meteor 2-11 Rocket 4.4 17:20:39 10° S 17:26:47 77° E 17:32:57 10° NNE
Cosmos 1025 Rocket 3.6 17:22:54 10° N 17:27:02 39° ENE 17:31:10 10° SE
Cosmos 1782 Rocket 3.5 17:25:48 10° S 17:30:12 73° E 17:34:40 10° NNE
Cosmos 2233 Rocket 4.1 17:24:36 10° S 17:30:51 85° W 17:37:05 10° N
Cosmos 1707 2.8 17:28:21 10° N 17:32:09 55° ENE 17:35:55 10° SSE
Cosmos 1908 Rocket 4.1 17:27:59 10° SSW 17:32:18 64° WNW 17:36:42 10° N
NOSS 3-2 (A) 4.1 17:27:12 10° NW 17:34:26 75° NE 17:42:43 10° SE
Cosmos 1743 4.4 17:30:56 10° SW 17:34:32 38° WNW 17:38:09 10° N
Nadezhda 4 Rocket 4.3 17:30:50 10° N 17:36:43 46° ENE 17:42:34 10° SE
NOSS 2-2 (C) 3.9 17:34:13 10° S 17:37:20 29° ESE 17:40:46 10° ENE
Ariane Rocket 3.2 17:34:39 10° SE 17:39:33 52° ENE 17:44:30 10° N
CZ-2C R/B 3.6 17:34:30 10° S 17:39:46 70° WSW 17:45:22 10° NNW
Cosmos 2263 Rocket 2.1 17:35:20 10° SSW 17:40:55 83° ESE 17:46:33 10° NNE
CREW DRAGON DEMO-1 DEB 2.7 17:40:54 10° W 17:43:57 82° S 17:46:07 17° E
SJ-6B 3.2 17:40:50 10° SE 17:44:20 40° ENE 17:47:53 10° N
USA 186 1.9 17:42:01 10° SSE 17:45:04 50° ENE 17:48:15 10° N
Cosmos 2034 Rocket 4.4 17:39:39 10° SSE 17:45:31 41° E 17:51:24 10° NNE
MOS 1 4.5 17:40:17 10° SE 17:45:49 55° ENE 17:51:23 10° N
Meteor 2-9 Rocket 4.4 17:40:22 10° SSW 17:46:14 85° WNW 17:52:02 10° NNE
Cosmos 1844 Rocket 3.6 17:43:36 10° SSE 17:48:05 26° ESE 17:52:36 10° NE
Cosmos 1975 Rocket 3.8 17:46:21 10° NNW 17:50:37 56° W 17:54:50 10° S
FREGAT/IRIS 2.9 17:49:42 19° SE 17:51:08 36° ENE 17:53:35 10° N
Lacrosse 4 Rocket 3.7 17:49:22 10° N 17:51:13 13° NNE 17:53:04 10° NE
HJ-1C 4.4 17:49:36 10° S 17:52:47 48° W 17:56:02 10° NNW
Cosmos 2227 4.4 17:48:23 10° SW 17:54:08 79° WNW 17:59:54 10° NNE
SPOT 3 Rocket 4.2 17:52:17 14° SE 17:56:09 37° ENE 18:00:52 10° N
USA 234 4.2 17:51:17 10° ENE 17:56:22 24° SE 18:01:26 10° S
Cosmos 1898 Rocket 3.9 17:51:42 10° SW 17:56:51 67° WNW 18:02:03 10° NNE
ATLAS CENTAUR R/B 3.6 17:55:16 10° WNW 17:58:06 19° NNW 18:00:53 10° NNE
USA 102 4.1 17:55:32 10° SSE 17:53:51 - SSE 18:00:30 22° S
Cosmos 1867 4.3 17:56:55 10° NW 18:02:12 51° WSW 18:07:28 10° SSE
Cosmos 1833 Rocket 4.0 18:01:48 10° NNW 18:06:34 27° NE 18:09:44 17° E
MetOp-A 4.1 18:02:05 10° SSE 18:07:24 69° ENE 18:12:44 10° NNW
Resurs 01 Rocket 2.5 18:05:19 21° ESE 18:07:24 31° ENE 18:11:20 10° N
NOSS 3-2 (C) 4.0 18:01:57 10° NW 18:09:13 77° NE 18:15:36 19° SE
Lacrosse 5 rocket 2.2 18:05:40 10° W 18:09:53 51° NNW 18:13:51 13° ENE
Cosmos 372 Rocket 3.9 18:06:07 10° SSW 18:11:18 67° ESE 18:16:30 10° NNE
IRS-1A Rocket 4.4 18:06:03 10° SSE 18:11:58 89° ENE 18:17:52 10° NNW
Sich 1 Rocket 3.9 18:08:19 10° SSW 18:12:49 72° WNW 18:17:24 10° N
MOS 1 Rocket 3.3 18:08:15 10° NNE 18:12:49 79° WNW 18:17:08 10° SSW
Meteor 1-12 Rocket 4.2 18:10:38 10° S 18:16:33 82° E 18:22:22 10° NNE
DMSP B5D2-2 4.2 18:12:34 10° NNE 18:17:45 52° E 18:22:54 10° S
OBJECT-B 0.9 18:19:21 34° SE 18:20:28 55° ENE 18:23:40 10° N
Cosmos 1626 3.0 18:17:51 10° N 18:21:09 29° ENE 18:21:30 28° E
Cosmos 2150 Rocket 4.1 18:16:04 10° S 18:21:17 54° ESE 18:26:37 10° NNE
SJ 16-02 3.9 18:17:57 10° WSW 18:21:31 23° NW 18:25:05 10° N
ARIANE 5 R/B 3.6 18:23:29 25° E 18:24:27 28° ENE 18:28:09 10° N
Cosmos 2285 Rocket 4.4 18:19:03 10° S 18:24:49 39° ESE 18:30:39 10° NE
Cosmos 1937 Rocket 4.3 18:19:54 10° SW 18:25:03 55° WNW 18:30:11 10° NNE
Cosmos 1125 Rocket 3.8 18:24:22 10° S 18:29:22 44° ESE 18:34:25 10° NE
Okean 2 Rocket 3.3 18:26:52 10° SSW 18:31:22 72° WNW 18:35:52 10° N
Abrixas rocket 2.7 18:29:15 10° WSW 18:31:44 36° SSW 18:31:44 36° SSW
Cosmos 1464 Rocket 4.1 18:26:56 10° SSW 18:33:03 76° W 18:39:17 10° N
Okean 1 Rocket 3.3 18:31:11 27° SSE 18:33:13 46° E 18:37:32 10° NNE
NOSS 2-2 (E) 3.3 18:30:39 10° SW 18:34:13 78° NW 18:38:31 10° NE
Cosmos 1092 Rocket 3.9 18:30:07 10° N 18:36:18 74° ENE 18:40:57 19° SSE
Meteor 2-13 Rocket 4.4 18:31:03 10° N 18:37:15 78° ENE 18:42:01 18° SSE
ERS-1 Rocket 4.3 18:37:27 21° ENE 18:38:18 22° ENE 18:42:07 10° N
Cosmos 2195 Rocket 4.4 18:32:18 10° N 18:38:36 69° ENE 18:42:45 22° SSE
Meteor 2-5 Rocket 3.7 18:34:02 10° N 18:39:40 70° ENE 18:42:58 26° SSE
Cosmos 1300 Rocket 4.1 18:35:39 10° SSW 18:40:00 61° WNW 18:44:25 10° N
ATLAS 2AS CENTAUR R/B 3.7 18:33:33 10° SSE 18:40:06 29° ESE 18:46:38 10° ENE
Cosmos 2026 Rocket 4.0 18:36:14 10° N 18:42:34 65° ENE 18:46:19 26° SSE
NOSS 2-2 (D) 3.2 18:39:21 10° SW 18:42:54 80° NW 18:47:06 10° NE
Resurs 1-3 3.5 18:41:32 28° SSE 18:43:50 90° ENE 18:48:16 10° NNW
CENTAUR R/B 3.2 18:38:36 10° NW 18:46:30 82° SW 18:51:58 26° SE
BREEZE-M R/B 3.9 18:40:46 10° WSW 18:48:33 43° S 18:48:53 42° SSE
Cosmos 2082 Rocket 3.3 18:43:41 10° NNW 18:48:37 30° NE 18:50:26 25° ENE
Cosmos 1805 3.1 18:49:00 51° SSE 18:49:46 66° E 18:53:40 10° NNE
Cosmos 1674 3.1 18:46:26 10° NNW 18:50:16 62° W 18:52:09 27° SSW
H-2A R/B 4.2 18:46:28 10° SW 18:50:28 24° W 18:54:34 10° NW
ATLAS 3B R/B 3.0 18:47:03 10° NW 18:53:45 58° NE 18:56:56 33° E
Cosmos 1428 Rocket 4.4 18:48:03 10° N 18:54:21 73° ENE 18:57:36 30° SSE
Exosat Rocket 3.4 18:50:52 10° SSW 18:56:14 62° ESE 19:01:10 10° NNE
ISS -2.4 18:54:09 10° SW 18:56:09 30° SW 18:56:09 30° SW
USA 238 DEB 4.4 18:50:45 10° NW 18:57:42 54° SW 19:02:30 22° SSE
USA 238 4.3 18:50:51 10° NW 18:57:49 55° SW 19:02:34 22° SSE
COSMOS 2406 3.3 18:53:47 10° NNW 18:59:26 61° NE 19:01:06 43° ESE
CZ-2C R/B 3.6 18:55:37 10° NNE 19:00:02 62° ESE 19:00:45 53° SE
Cosmos 1892 Rocket 3.6 18:56:06 10° N 19:00:22 53° ENE 19:00:29 53° E
Cosmos 1733 3.5 19:01:22 53° NE 19:01:22 53° NE 19:04:33 10° NNE
Cosmos 2279 Rocket 4.3 19:00:02 39° ESE 19:01:15 43° E 19:07:06 10° NNE
Meteor 1-24 Rocket 3.6 18:57:14 10° NNW 19:02:44 80° ENE 19:04:56 39° SSE
SPOT 1/Viking Rocket 3.9 19:02:43 43° E 19:03:30 46° ENE 19:08:26 10° N
CZ-2C R/B 3.1 18:58:23 10° N 19:03:51 66° WNW 19:09:23 10° SSW
Cosmos 1269 Rocket 3.9 19:00:35 10° NNW 19:05:57 89° ENE 19:07:34 47° SSE
SL-14 R/B 3.1 19:03:54 10° N 19:07:48 80° ENE 19:07:48 80° ENE
Spot 2 Rocket 3.5 19:10:54 53° ESE 19:11:34 58° ENE 19:16:32 10° N
MetOp-B 4.0 19:20:19 52° SSE 19:21:42 89° WSW 19:27:06 10° NNW
Cosmos 2278 Rocket 4.1 19:26:08 15° NE 19:26:08 15° NE 19:27:15 10° NE
Cosmos 1844 3.6 19:17:02 10° SSW 19:22:45 89° NW 19:28:25 10° NNE
Terra 3.0 19:23:42 29° NE 19:23:42 29° NE 19:27:19 10° N
Cosmos 1766 3.5 19:23:36 65° W 19:23:46 66° WNW 19:27:43 10° N
Cosmos 2263 Rocket 4.3 19:20:50 10° W 19:25:31 27° NW 19:30:15 10° NNE
Lacrosse 4 Rocket 2.4 19:27:09 10° NNW 19:30:19 36° NNE 19:30:19 36° NNE
Okean 1-7 Rocket 3.6 19:26:35 10° N 19:30:53 73° NNE 19:30:53 73° NNE
Cosmos 1844 Rocket 2.9 19:25:58 10° SW 19:31:31 67° NW 19:37:08 10° NNE
ATLAS CENTAUR R/B 3.9 19:36:41 10° NNW 19:38:19 12° N 19:39:47 10° NNE
Cosmos 2251 Rocket 3.7 19:34:07 10° NNW 19:39:24 57° ENE 19:39:24 57° ENE
USA 234 3.1 19:37:13 34° ENE 19:40:15 66° SE 19:46:45 10° SW
IGS 5A 3.9 19:44:06 58° NW 19:44:06 58° NW 19:47:40 10° NNW
Resurs 01 Rocket 2.8 19:42:54 34° SW 19:43:50 38° W 19:48:00 10° NNW
Cosmos 2266 Rocket 3.9 19:38:47 10° N 19:44:48 62° ENE 19:44:59 61° E
Cosmos 1340 Rocket 4.1 19:48:50 35° N 19:48:50 35° N 19:51:18 10° N
SPOT 5 3.2 19:49:28 62° NE 19:49:28 62° NE 19:54:21 10° N
Lacrosse 5 rocket 2.3 19:45:21 10° WNW 19:49:28 48° N 19:49:28 48° N
Cosmos 1833 Rocket 2.5 19:45:29 10° NNW 19:51:11 84° WSW 19:51:25 81° SSW
OBJECT-B 3.8 19:52:33 11° W 19:53:10 12° W 19:54:30 10° WNW
Cosmos 1655 Rocket 3.9 19:49:42 10° N 19:55:59 90° NE 19:56:43 72° S
Cosmos 1626 4.1 19:53:11 10° NNW 19:56:03 26° W 19:56:03 26° W
Cosmos 1455 Rocket 4.3 20:02:24 37° N 20:02:24 37° N 20:05:08 10° N
ARIANE 5 R/B 3.6 20:01:02 41° W 20:01:02 41° W 20:04:55 10° NNW
NOSS 3-4 (A) 4.3 20:09:56 36° NE 20:09:56 36° NE 20:13:41 10° NE
NOSS 3-4 (C) 4.4 20:10:09 35° NE 20:10:09 35° NE 20:13:47 10° NE
Cosmos 1461 4.5 20:08:43 10° NW 20:12:25 35° NNE 20:12:25 35° NNE
ERS-1 Rocket 3.4 20:17:26 60° NW 20:17:26 60° NW 20:21:41 10° NNW
Cosmos 2098 Rocket 4.4 20:22:08 10° NNW 20:29:12 59° W 20:30:00 55° WSW
ATLAS 2AS CENTAUR R/B 2.9 20:22:23 10° SW 20:30:23 89° SE 20:38:15 10° NE
Cosmos 2082 Rocket 2.6 20:27:36 10° NW 20:32:16 58° WNW 20:32:16 58° WNW
CENTAUR R/B 4.5 20:29:58 10° WNW 20:36:35 28° WSW 20:39:09 24° SW
ATLAS 3B R/B 3.2 20:37:55 10° NW 20:44:10 49° WSW 20:44:10 49° WSW
Terra 3.5 21:02:35 31° NW 21:02:35 31° NW 21:05:22 10° NNW
Cosmos 2278 Rocket 3.2 21:07:57 41° N 21:07:57 41° N 21:11:49 10° NNE
Lacrosse 4 Rocket 4.2 21:05:58 10° NW 21:06:37 14° WNW 21:06:37 14° WNW
ATLAS CENTAUR R/B 4.5 21:15:43 10° NNW 21:15:57 11° NNW 21:15:57 11° NNW
USA 234 3.7 21:16:51 10° ENE 21:24:44 55° WNW 21:29:51 10° W
Lacrosse 5 rocket 4.4 21:24:37 10° WNW 21:25:05 13° WNW 21:25:05 13° WNW
CZ-4C R/B 4.0 21:49:08 25° NE 21:49:08 25° NE 21:51:43 10° NE
USA 229 DEB 4.3 21:46:09 10° NW 21:53:07 54° NNE 21:53:20 54° NE
USA 229 4.3 21:46:15 10° NW 21:53:12 53° NNE 21:53:26 53° NE
NOSS 3-1 (A) 4.4 21:58:21 10° NW 22:05:11 53° NNE 22:06:02 51° NE
Cosmos 1943 Rocket 3.9 22:16:55 27° NNE 22:16:55 27° NNE 22:19:20 10° NNE
ATLAS 2AS CENTAUR R/B 3.9 22:14:40 10° W 22:22:14 44° NNW 22:29:32 10° NE
Cosmos 2297 Rocket 4.1 22:26:06 10° NNW 22:30:42 24° NE 22:31:23 24° NE
COSMOS 2455 4.0 22:39:35 39° NNW 22:39:35 39° NNW 22:44:17 10° NNE
Cosmos 2369 Rocket 3.7 22:44:15 31° NNE 22:44:15 31° NNE 22:47:05 10° NNE
NOSS 3-1 (C) 4.3 22:38:54 10° NW 22:44:17 57° NW 22:44:17 57° NW
Cosmos 2278 Rocket 4.4 22:49:46 17° NW 22:51:29 19° NNW 22:55:31 10° NNE
SL-16 R/B 3.7 22:58:38 36° ENE 22:58:38 36° ENE 23:04:08 10° N
USA 234 3.7 22:59:39 10° E 23:12:14 11° WNW 23:12:28 10° WNW
Cosmos 2227 Rocket 3.4 23:23:08 10° NNW 23:27:48 38° NNE 23:27:48 38° NNE
ADEOS II 4.5 23:27:57 10° NE 23:30:32 14° E 23:30:32 14° E
CZ-4C R/B 3.5 23:34:17 37° NNW 23:34:40 37° NNW 23:40:53 10° NE
Cosmos 2219 4.3 23:38:06 10° NNW 23:41:52 40° N 23:41:52 40° N
SL-8 Rocket 4.4 23:46:18 10° N 23:51:58 57° NE 23:51:58 57° NE
